N1UNH Weather Reports


Display with metric or nautical units.
time (UTC)temp
F
wind
direction
speed
MPH
gust
MPH
rain 1hr
in
rain 24hr
in
rain mn
in
humidity
%
barometer
mb
20260504202458 74 183 1.0 1.0 0.00 0.00 0.00 29 1011.2
20260504201955 73 182 0.0 1.0 0.00 0.00 0.00 27 1011.0
20260504201452 72 182 2.0 1.0 0.00 0.00 0.00 29 1011.1
20260504200950 72 183 1.0 2.0 0.00 0.00 0.00 28 1011.2
20260504200447 72 182 4.0 4.0 0.00 0.00 0.00 28 1011.1
20260504195943 72 182 1.0 1.0 0.00 0.00 0.00 28 1011.1
20260504195439 71 183 0.0 0.0 0.00 0.00 0.00 30 1011.3
20260504194936 72 181 2.0 2.0 0.00 0.00 0.00 28 1011.0
20260504194432 72 182 3.0 3.0 0.00 0.00 0.00 28 1011.1
20260504193928 71 182 1.0 2.0 0.00 0.00 0.00 29 1011.1
20260504193425 72 182 1.0 1.0 0.00 0.00 0.00 28 1011.1
20260504192924 71 183 0.0 1.0 0.00 0.00 0.00 31 1011.2
20260504192421 69 183 1.0 1.0 0.00 0.00 0.00 30 1011.2
20260504191920 69 182 1.0 2.0 0.00 0.00 0.00 30 1011.2
20260504191418 70 182 3.0 3.0 0.00 0.00 0.00 29 1011.3
20260504190912 69 183 2.0 2.0 0.00 0.00 0.00 30 1011.4
20260504190408 70 182 4.0 7.0 0.00 0.00 0.00 30 1011.3
20260504185905 70 182 0.0 1.0 0.00 0.00 0.00 30 1011.3
20260504185402 72 182 2.0 2.0 0.00 0.00 0.00 27 1011.3
20260504184858 72 183 1.0 1.0 0.00 0.00 0.00 29 1011.2
20260504184354 70 183 1.0 1.0 0.00 0.00 0.00 28 1011.2
20260504183850 70 182 2.0 2.0 0.00 0.00 0.00 29 1011.4
20260504183348 69 183 4.0 6.0 0.00 0.00 0.00 29 1011.2
20260504182845 69 182 1.0 2.0 0.00 0.00 0.00 32 1011.5
20260504182343 68 182 2.0 3.0 0.00 0.00 0.00 32 1011.4
20260504181839 67 181 2.0 2.0 0.00 0.00 0.00 31 1011.7
20260504181337 68 181 4.0 4.0 0.00 0.00 0.00 31 1011.6
20260504180835 68 181 1.0 1.0 0.00 0.00 0.00 34 1011.6
20260504180333 68 181 1.0 1.0 0.00 0.00 0.00 30 1011.6
20260504175832 68 182 1.0 1.0 0.00 0.00 0.00 34 1011.6
20260504175328 68 182 4.0 4.0 0.00 0.00 0.00 30 1011.7
20260504174826 68 182 1.0 1.0 0.00 0.00 0.00 30 1011.7
20260504174323 68 181 2.0 2.0 0.00 0.00 0.00 30 1011.7
20260504173820 69 181 4.0 4.0 0.00 0.00 0.00 28 1011.8
20260504173317 71 182 7.0 8.0 0.00 0.00 0.00 28 1011.9
20260504172814 70 183 2.0 4.0 0.00 0.00 0.00 27 1012.0
20260504172310 70 182 1.0 2.0 0.00 0.00 0.00 29 1011.9
20260504171806 69 183 1.0 2.0 0.00 0.00 0.00 29 1011.8
20260504171304 69 182 1.0 1.0 0.00 0.00 0.00 29 1011.9
20260504170801 69 183 1.0 1.0 0.00 0.00 0.00 31 1011.6
20260504170258 69 182 9.0 9.0 0.00 0.00 0.00 28 1011.9
20260504160216 66 182 1.0 2.0 0.00 0.00 0.00 31 1012.2
20260504151144 65 160 1.0 1.0 0.00 0.00 0.00 34 1012.6
20260504150641 65 160 2.0 3.0 0.00 0.00 0.00 33 1012.7
20260504150138 65 160 6.0 7.0 0.00 0.00 0.00 34 1012.5
20260504141107 60 160 4.0 4.0 0.00 0.00 0.00 37 1013.3
20260504140603 60 160 3.0 3.0 0.00 0.00 0.00 37 1013.3
20260504130527 56 159 1.0 1.0 0.00 0.00 0.00 43 1014.2
20260504110415 41 159 0.0 0.0 0.00 0.00 0.00 84 1014.8
20260504100332 42 131 0.0 0.0 0.00 0.00 0.00 77 1014.8
20260504081726 40 131 0.0 0.0 0.00 0.00 0.00 79 1014.6
20260504081222 40 131 0.0 0.0 0.00 0.00 0.00 81 1014.5
20260504080719 40 131 0.0 0.0 0.00 0.00 0.00 79 1014.7
20260504080215 40 131 0.0 0.0 0.00 0.00 0.00 82 1014.7
20260504070143 39 131 0.0 0.0 0.00 0.00 0.00 81 1014.5
20260504060104 38 131 0.0 0.0 0.00 0.00 0.00 83 1014.7
20260504050532 35 131 0.0 0.0 0.00 0.00 0.00 83 1014.9
20260504045525 35 131 0.0 0.0 0.00 0.00 0.00 80 1015.0
20260504045021 35 131 0.0 0.0 0.00 0.00 0.00 79 1014.8
20260504044518 35 131 0.0 0.0 0.00 0.00 0.00 79 1015.1
20260504044015 35 131 0.0 0.0 0.00 0.00 0.00 82 1014.8
20260504043512 35 131 0.0 0.0 0.00 0.00 0.00 80 1014.7
20260504043010 35 131 0.0 0.0 0.00 0.00 0.00 82 1014.8
20260504042506 35 131 0.0 0.0 0.00 0.00 0.00 78 1014.7
20260504042003 35 131 0.0 0.0 0.00 0.00 0.00 80 1014.7
20260504041459 35 131 0.0 0.0 0.00 0.00 0.00 82 1014.9
20260504040955 35 131 0.0 0.0 0.00 0.00 0.00 83 1014.7
20260504040453 35 131 0.0 0.0 0.00 0.00 0.00 82 1014.6
20260504035949 35 131 0.0 0.0 0.00 0.02 0.02 82 1014.5
20260504035447 35 131 0.0 0.0 0.00 0.02 0.02 80 1014.7
20260504034943 35 131 0.0 0.0 0.00 0.02 0.02 81 1014.8
20260504034441 36 131 0.0 0.0 0.00 0.02 0.02 82 1014.8
20260504033937 36 131 0.0 0.0 0.00 0.02 0.02 82 1014.8
20260504033435 36 131 0.0 0.0 0.00 0.02 0.02 80 1014.6
20260504032932 35 131 0.0 0.0 0.00 0.02 0.02 80 1014.5
20260504032429 35 131 0.0 0.0 0.00 0.02 0.02 81 1014.6
20260504031926 35 131 0.0 0.0 0.00 0.02 0.02 80 1014.5
20260504031423 35 131 0.0 0.0 0.00 0.02 0.02 80 1014.4
20260504030920 35 131 1.0 1.0 0.00 0.02 0.02 80 1014.5
20260504030417 35 131 0.0 0.0 0.00 0.02 0.02 81 1014.4
20260504025912 35 131 0.0 0.0 0.00 0.02 0.02 81 1014.6
20260504025409 35 131 0.0 0.0 0.00 0.02 0.02 80 1014.5
20260504024906 35 131 0.0 0.0 0.00 0.02 0.02 79 1014.6
20260504024403 35 131 0.0 0.0 0.00 0.02 0.02 78 1014.6
20260504023901 35 131 0.0 0.0 0.00 0.02 0.02 78 1014.6
20260504023356 36 131 0.0 0.0 0.00 0.02 0.02 77 1014.7
20260504022852 36 131 0.0 0.0 0.00 0.02 0.02 76 1014.5
20260504022349 36 131 0.0 0.0 0.00 0.02 0.02 78 1014.5
20260504021845 36 131 0.0 0.0 0.00 0.02 0.02 76 1014.5
20260504021343 36 131 0.0 0.0 0.00 0.02 0.02 76 1014.6
20260504020839 37 131 0.0 0.0 0.00 0.02 0.02 76 1014.7
20260504020337 37 131 0.0 0.0 0.00 0.02 0.02 75 1014.5
20260504015833 37 131 0.0 0.0 0.00 0.02 0.02 74 1014.4
20260504015329 37 131 0.0 0.0 0.00 0.02 0.02 74 1014.3
20260504014825 37 131 0.0 0.0 0.00 0.02 0.02 74 1014.5
20260504014321 37 131 0.0 0.0 0.00 0.02 0.02 74 1014.7
20260504013819 38 131 0.0 0.0 0.00 0.02 0.02 73 1014.4
20260504013317 38 131 0.0 0.0 0.00 0.02 0.02 75 1014.6
20260504012813 38 131 0.0 0.0 0.00 0.02 0.02 74 1014.4
20260504012311 38 131 0.0 0.0 0.00 0.02 0.02 73 1014.3
20260504011808 39 131 0.0 0.0 0.00 0.02 0.02 73 1014.3
20260504011305 39 131 0.0 0.0 0.00 0.02 0.02 71 1014.5
20260504010800 39 131 0.0 0.0 0.00 0.02 0.02 69 1014.3
20260504010255 39 131 0.0 0.0 0.00 0.02 0.02 69 1014.2
20260504005753 40 131 0.0 0.0 0.00 0.02 0.02 70 1014.3
20260504005250 40 131 0.0 0.0 0.00 0.02 0.02 69 1014.3
20260504004748 40 131 0.0 0.0 0.00 0.02 0.02 69 1013.9
20260504004245 40 131 0.0 0.0 0.00 0.02 0.02 71 1013.9
20260504003741 41 131 0.0 0.0 0.00 0.02 0.02 70 1013.9
20260504003238 41 131 0.0 0.0 0.00 0.02 0.02 69 1013.5
20260504002735 41 131 0.0 0.0 0.00 0.02 0.02 66 1013.6
20260504002232 42 131 0.0 0.0 0.00 0.02 0.02 66 1013.6
20260504001730 42 131 0.0 0.0 0.00 0.02 0.02 65 1013.5
20260504001226 42 131 1.0 1.0 0.00 0.02 0.02 69 1013.3
20260504000723 43 131 0.0 0.0 0.00 0.02 0.02 67 1013.6
20260504000220 43 131 0.0 0.0 0.00 0.02 0.02 67 1013.6
20260503235718 44 131 0.0 0.0 0.00 0.02 0.02 64 1013.2
20260503235215 44 131 0.0 0.0 0.00 0.02 0.02 62 1013.3
20260503234713 45 131 0.0 0.0 0.00 0.02 0.02 57 1013.3
20260503234211 46 131 0.0 0.0 0.00 0.02 0.02 54 1013.3
20260503233708 46 131 0.0 0.0 0.00 0.02 0.02 56 1013.3
20260503233203 46 131 0.0 0.0 0.00 0.02 0.02 58 1013.2
20260503232700 47 131 0.0 0.0 0.00 0.02 0.02 51 1013.2
20260503232157 47 131 1.0 1.0 0.00 0.02 0.02 49 1013.2
20260503231656 47 131 0.0 0.0 0.00 0.02 0.02 49 1012.9
20260503231151 47 131 1.0 1.0 0.00 0.02 0.02 45 1013.1
20260503230648 48 131 0.0 0.0 0.00 0.02 0.02 53 1012.9
20260503230146 48 131 1.0 1.0 0.00 0.02 0.02 49 1012.9
20260503225643 48 131 0.0 0.0 0.00 0.02 0.02 50 1012.8
20260503225143 49 131 0.0 0.0 0.00 0.02 0.02 48 1012.9
20260503224640 49 131 0.0 0.0 0.00 0.02 0.02 43 1012.7
20260503224137 49 131 1.0 1.0 0.00 0.02 0.02 43 1012.8
20260503223635 49 131 0.0 0.0 0.00 0.02 0.02 42 1012.7
20260503223131 49 131 1.0 1.0 0.00 0.02 0.02 42 1012.7
20260503222629 49 131 1.0 1.0 0.00 0.02 0.02 42 1012.7
20260503222126 49 131 1.0 1.0 0.00 0.02 0.02 42 1012.7
20260503221625 49 131 2.0 2.0 0.00 0.02 0.02 41 1012.6
20260503221122 50 131 1.0 1.0 0.00 0.02 0.02 43 1012.6
20260503220618 50 131 1.0 1.0 0.00 0.02 0.02 43 1012.4
20260503220115 50 131 1.0 1.0 0.00 0.02 0.02 41 1012.4
20260503215612 50 131 1.0 1.0 0.00 0.02 0.02 40 1012.3
20260503215108 50 131 1.0 1.0 0.00 0.02 0.02 39 1012.4
20260503214607 51 131 2.0 2.0 0.00 0.02 0.02 39 1012.4
20260503214103 51 132 1.0 2.0 0.00 0.02 0.02 38 1012.2
20260503213602 50 132 2.0 3.0 0.00 0.02 0.02 40 1012.2
20260503213058 50 131 0.0 1.0 0.00 0.02 0.02 41 1012.0
20260503212555 50 131 2.0 3.0 0.00 0.02 0.02 39 1012.1
20260503212053 50 131 1.0 2.0 0.00 0.02 0.02 37 1012.1
20260503211550 51 131 1.0 1.0 0.00 0.02 0.02 38 1012.0
20260503211045 51 131 1.0 1.0 0.00 0.02 0.02 41 1011.9
20260503210542 51 131 0.0 0.0 0.00 0.02 0.02 39 1011.9
20260503210038 51 131 1.0 1.0 0.00 0.02 0.02 37 1011.8
20260503205535 50 132 1.0 1.0 0.00 0.02 0.02 40 1011.9
20260503205031 50 131 0.0 0.0 0.00 0.02 0.02 41 1011.7
20260503204528 50 131 1.0 1.0 0.00 0.02 0.02 42 1011.9
20260503204025 50 131 2.0 3.0 0.00 0.02 0.02 39 1011.6
20260503203523 50 131 0.0 0.0 0.00 0.02 0.02 39 1011.7
20260503203020 50 131 1.0 2.0 0.00 0.02 0.02 39 1011.9